W4SNA-2 Weather Reports


time (UTC)temp
C
wind
direction
speed
KPH
gust
KPH
rain 1hr
cm
rain 24hr
cm
rain mn
cm
humidity
%
barometer
mb
20260505211437 21 195 9.7 29.0 0.00 0.00 0.00 44 1015.2
20260505210939 21 201 11.3 29.0 0.00 0.00 0.00 43 1015.2
20260505210437 21 199 12.9 32.2 0.00 0.00 0.00 42 1015.2
20260505205937 21 193 12.9 32.2 0.00 0.00 0.00 42 1015.2
20260505205437 21 192 11.3 27.4 0.00 0.00 0.00 42 1015.4
20260505204938 21 199 9.7 30.6 0.00 0.00 0.00 40 1015.4
20260505204437 21 195 12.9 30.6 0.00 0.00 0.00 38 1015.3
20260505203938 21 194 9.7 29.0 0.00 0.00 0.00 40 1015.3
20260505203437 21 202 12.9 29.0 0.00 0.00 0.00 41 1015.3
20260505202938 22 192 11.3 29.0 0.00 0.00 0.00 42 1015.1
20260505202437 22 186 11.3 30.6 0.00 0.00 0.00 42 1015.2
20260505201937 22 183 11.3 30.6 0.00 0.00 0.00 41 1015.0
20260505201439 21 191 16.1 30.6 0.00 0.00 0.00 41 1015.1
20260505200939 21 195 12.9 27.4 0.00 0.00 0.00 40 1015.4
20260505200414 21 186 12.9 29.0 0.00 0.00 0.00 42 1015.4
20260505195914 22 197 16.1 29.0 0.00 0.00 0.00 39 1015.2
20260505195415 22 186 9.7 30.6 0.00 0.00 0.00 41 1015.3
20260505194914 22 194 16.1 30.6 0.00 0.00 0.00 39 1015.4
20260505194414 22 184 12.9 29.0 0.00 0.00 0.00 42 1015.5
20260505193914 22 199 11.3 29.0 0.00 0.00 0.00 43 1015.8
20260505193336 22 172 6.4 24.1 0.00 0.00 0.00 43 1015.8
20260505192803 22 182 9.7 30.6 0.00 0.00 0.00 41 1015.9
20260505192305 22 178 8.0 30.6 0.00 0.00 0.00 41 1015.9
20260505191803 22 187 11.3 33.8 0.00 0.00 0.00 42 1016.1
20260505191304 22 196 12.9 33.8 0.00 0.00 0.00 41 1016.0
20260505190804 22 187 11.3 22.5 0.00 0.00 0.00 42 1016.1
20260505190303 21 184 12.9 33.8 0.00 0.00 0.00 43 1016.1
20260505185803 22 197 14.5 33.8 0.00 0.00 0.00 42 1016.0
20260505185305 22 195 14.5 30.6 0.00 0.00 0.00 41 1016.0
20260505184804 22 200 16.1 29.0 0.00 0.00 0.00 42 1016.3
20260505184303 22 191 12.9 29.0 0.00 0.00 0.00 43 1016.4
20260505183715 22 191 14.5 37.0 0.00 0.00 0.00 44 1016.5
20260505183217 22 188 11.3 33.8 0.00 0.00 0.00 43 1016.7
20260505182716 21 189 11.3 24.1 0.00 0.00 0.00 44 1016.6
20260505182216 21 188 11.3 24.1 0.00 0.00 0.00 44 1016.7
20260505181714 21 195 12.9 25.7 0.00 0.00 0.00 45 1017.0
20260505181215 21 195 12.9 25.7 0.00 0.00 0.00 43 1016.9
20260505180714 22 200 11.3 25.7 0.00 0.00 0.00 43 1016.8
20260505180215 22 188 9.7 25.7 0.00 0.00 0.00 45 1016.9
20260505175714 21 188 6.4 25.7 0.00 0.00 0.00 49 1016.9
20260505175214 21 198 9.7 22.5 0.00 0.00 0.00 48 1016.9
20260505174715 21 192 11.3 24.1 0.00 0.00 0.00 46 1016.9
20260505174214 21 190 9.7 24.1 0.00 0.00 0.00 47 1017.0
20260505173714 21 183 8.0 24.1 0.00 0.00 0.00 47 1017.0
20260505173214 21 198 8.0 24.1 0.00 0.00 0.00 48 1017.0
20260505172714 21 193 9.7 17.7 0.00 0.00 0.00 47 1017.0
20260505172215 21 187 6.4 17.7 0.00 0.00 0.00 49 1017.2
20260505171714 21 198 6.4 17.7 0.00 0.00 0.00 48 1017.3
20260505171147 21 188 6.4 19.3 0.00 0.00 0.00 49 1017.3
20260505170625 21 192 8.0 16.1 0.00 0.00 0.00 49 1017.4
20260505170110 21 187 6.4 17.7 0.00 0.00 0.00 49 1017.5
20260505165610 21 194 11.3 20.9 0.00 0.00 0.00 47 1017.5
20260505165110 21 193 4.8 20.9 0.00 0.00 0.00 48 1017.5
20260505164610 21 188 8.0 16.1 0.00 0.00 0.00 49 1017.6
20260505164110 21 178 3.2 16.1 0.00 0.00 0.00 50 1017.7
20260505163610 21 194 9.7 16.1 0.00 0.00 0.00 51 1017.8
20260505163110 21 186 6.4 17.7 0.00 0.00 0.00 52 1017.7
20260505162610 21 185 1.6 17.7 0.00 0.00 0.00 52 1017.9
20260505162110 21 185 8.0 16.1 0.00 0.00 0.00 51 1017.9
20260505161610 21 174 3.2 16.1 0.00 0.00 0.00 54 1017.9
20260505161110 21 194 4.8 16.1 0.00 0.00 0.00 53 1018.1
20260505160610 21 180 1.6 12.9 0.00 0.00 0.00 53 1018.1
20260505160110 20 175 3.2 12.9 0.00 0.00 0.00 56 1018.1
20260505153110 20 185 1.6 12.9 0.00 0.00 0.00 57 1018.3
20260505152610 20 183 1.6 8.0 0.00 0.00 0.00 60 1018.3
20260505152110 19 181 1.6 11.3 0.00 0.00 0.00 61 1018.5
20260505151610 18 180 3.2 17.7 0.00 0.00 0.00 63 1018.3
20260505151110 18 169 4.8 17.7 0.00 0.00 0.00 61 1018.2
20260505150610 18 181 4.8 17.7 0.00 0.00 0.00 61 1018.2
20260505150110 18 181 3.2 17.7 0.00 0.00 0.00 62 1018.4
20260505140610 16 179 1.6 19.3 0.00 0.00 0.00 69 1017.9
20260505140110 16 174 8.0 24.1 0.00 0.00 0.00 66 1017.9
20260505130110 15 0 0.0 12.9 0.00 0.00 0.00 65 1017.8
20260505124540 15 0 0.0 8.0 0.00 0.00 0.00 66 1017.7
20260505123544 15 0 0.0 9.7 0.00 0.00 0.00 63 1017.5
20260505123039 14 0 0.0 16.1 0.00 0.00 0.00 66 1017.5
20260505122543 13 0 0.0 16.1 0.00 0.00 0.00 68 1017.4
20260505122039 13 231 1.6 16.1 0.00 0.00 0.00 68 1017.4
20260505121539 13 209 1.6 16.1 0.00 0.00 0.00 68 1017.3
20260505121040 13 224 1.6 12.9 0.00 0.00 0.00 69 1017.3
20260505120040 12 0 0.0 11.3 0.00 0.00 0.00 70 1017.3
20260505115539 12 0 0.0 11.3 0.00 0.00 0.00 71 1017.3
20260505115039 12 0 0.0 17.7 0.00 0.00 0.00 72 1017.4
20260505114539 12 225 3.2 17.7 0.00 0.00 0.00 74 1017.3
20260505114039 11 237 1.6 32.2 0.00 0.00 0.00 76 1017.2
20260505113538 11 210 3.2 32.2 0.00 0.00 0.00 76 1017.3
20260505113039 11 224 3.2 20.9 0.00 0.00 0.00 76 1017.1
20260505112539 11 0 0.0 20.9 0.00 0.00 0.00 76 1017.2
20260505112039 11 207 1.6 19.3 0.00 0.00 0.00 76 1017.2
20260505111539 11 198 1.6 19.3 0.00 0.00 0.00 76 1017.1
20260505111039 11 213 4.8 17.7 0.00 0.00 0.00 75 1017.1
20260505110539 11 227 1.6 14.5 0.00 0.00 0.00 75 1016.9
20260505102039 11 0 0.0 16.1 0.00 0.00 0.00 73 1016.8
20260505101541 11 0 0.0 16.1 0.00 0.00 0.00 73 1016.9
20260505101039 11 253 1.6 11.3 0.00 0.00 0.00 72 1016.7
20260505100539 12 210 1.6 11.3 0.00 0.00 0.00 71 1016.9
20260505100039 12 214 1.6 16.1 0.00 0.00 0.00 70 1016.8
20260505095544 12 219 3.2 16.1 0.00 0.00 0.00 70 1016.8
20260505095039 12 234 1.6 12.9 0.00 0.00 0.00 70 1016.7
20260505094540 12 219 3.2 17.7 0.00 0.00 0.00 69 1016.7
20260505094039 12 226 1.6 19.3 0.00 0.00 0.00 69 1016.8
20260505093539 12 203 3.2 19.3 0.00 0.00 0.00 68 1016.8
20260505093039 12 202 1.6 12.9 0.00 0.00 0.00 68 1016.8
20260505092539 12 202 3.2 14.5 0.00 0.00 0.00 67 1016.8
20260505092038 12 0 0.0 20.9 0.00 0.00 0.00 67 1016.7
20260505091539 12 206 4.8 20.9 0.00 0.00 0.00 66 1016.7
20260505091038 12 195 1.6 14.5 0.00 0.00 0.00 66 1016.6
20260505090539 12 217 1.6 11.3 0.00 0.00 0.00 66 1016.6
20260505090039 12 0 0.0 8.0 0.00 0.00 0.00 65 1016.5
20260505085539 12 0 0.0 0.0 0.00 0.00 0.00 65 1016.4
20260505085039 13 0 0.0 4.8 0.00 0.00 0.00 64 1016.4
20260505084539 13 0 0.0 11.3 0.00 0.00 0.00 63 1016.4
20260505084039 13 0 0.0 17.7 0.00 0.00 0.00 63 1016.4
20260505083540 13 202 4.8 17.7 0.00 0.00 0.00 63 1016.2
20260505083038 13 200 4.8 22.5 0.00 0.00 0.00 62 1016.2
20260505082539 13 0 0.0 22.5 0.00 0.00 0.00 62 1016.2
20260505082038 13 238 1.6 22.5 0.00 0.00 0.00 62 1016.2
20260505081539 13 207 4.8 22.5 0.00 0.00 0.00 62 1016.2
20260505081038 13 200 4.8 22.5 0.00 0.00 0.00 62 1016.1
20260505080539 13 200 6.4 24.1 0.00 0.00 0.00 62 1016.0
20260505080039 13 199 6.4 24.1 0.00 0.00 0.00 62 1016.1
20260505075539 13 200 6.4 17.7 0.00 0.00 0.00 62 1016.0
20260505075038 13 201 3.2 19.3 0.00 0.00 0.00 62 1016.0
20260505074539 13 196 8.0 19.3 0.00 0.00 0.00 61 1015.9
20260505074039 13 195 6.4 22.5 0.00 0.00 0.00 61 1015.9
20260505073541 13 209 4.8 22.5 0.00 0.00 0.00 61 1015.9
20260505073038 13 198 9.7 17.7 0.00 0.00 0.00 61 1015.9
20260505072539 13 195 8.0 16.1 0.00 0.00 0.00 61 1016.0
20260505072038 13 195 6.4 16.1 0.00 0.00 0.00 59 1015.9
20260505071400 13 192 3.2 16.1 0.00 0.00 0.00 59 1015.9
20260505070447 14 203 6.4 22.5 0.00 0.00 0.00 58 1015.9
20260505065947 14 197 6.4 27.4 0.00 0.00 0.00 58 1015.8
20260505065447 14 200 9.7 27.4 0.00 0.00 0.00 58 1015.7
20260505064947 14 196 8.0 25.7 0.00 0.00 0.00 58 1015.7
20260505064447 14 203 8.0 25.7 0.00 0.00 0.00 57 1015.8
20260505063947 14 196 4.8 30.6 0.00 0.00 0.00 58 1015.9
20260505063447 14 207 8.0 30.6 0.00 0.00 0.00 57 1016.1
20260505062947 14 196 9.7 24.1 0.00 0.00 0.00 57 1015.8
20260505062447 14 195 6.4 20.9 0.00 0.00 0.00 58 1015.8
20260505061947 14 191 8.0 19.3 0.00 0.00 0.00 57 1016.0
20260505061447 14 196 8.0 19.3 0.00 0.00 0.00 57 1016.0
20260505060947 14 192 6.4 20.9 0.00 0.00 0.00 57 1015.9
20260505060447 15 197 8.0 20.9 0.00 0.00 0.00 57 1015.9
20260505055947 15 195 8.0 22.5 0.00 0.00 0.00 56 1015.9
20260505055447 15 201 8.0 32.2 0.00 0.00 0.00 56 1016.0
20260505054947 15 199 14.5 32.2 0.00 0.00 0.00 56 1015.9
20260505054447 15 201 11.3 29.0 0.00 0.00 0.00 55 1016.0
20260505053947 15 196 11.3 20.9 0.00 0.00 0.00 55 1015.9
20260505053528 15 198 8.0 24.1 0.00 0.00 0.00 55 1016.0
20260505053447 15 198 8.0 24.1 0.00 0.00 0.00 55 1016.0
20260505052947 15 200 8.0 29.0 0.00 0.00 0.00 55 1016.0
20260505052447 15 198 8.0 29.0 0.00 0.00 0.00 54 1016.1
20260505051947 15 192 9.7 25.7 0.00 0.00 0.00 54 1015.9
20260505051447 15 196 8.0 24.1 0.00 0.00 0.00 54 1015.9
20260505050947 15 194 9.7 25.7 0.00 0.00 0.00 53 1015.9
20260505050447 16 198 9.7 25.7 0.00 0.00 0.00 53 1015.8
20260505041447 16 199 11.3 29.0 0.00 0.00 0.00 49 1015.8
20260505040436 16 198 8.0 24.1 0.00 0.00 0.00 49 1016.0
20260505035935 16 205 11.3 24.1 0.00 0.00 0.00 49 1015.8
20260505035435 16 201 9.7 24.1 0.00 0.00 0.00 49 1015.9
20260505034935 16 193 9.7 22.5 0.00 0.00 0.00 49 1016.0
20260505034435 16 196 11.3 22.5 0.00 0.00 0.00 48 1016.1
20260505033937 16 195 8.0 20.9 0.00 0.00 0.00 49 1016.1
20260505033435 16 199 11.3 25.7 0.00 0.00 0.00 49 1016.1
20260505032935 16 193 9.7 25.7 0.00 0.00 0.00 49 1016.2
20260505032435 16 196 8.0 24.1 0.00 0.00 0.00 48 1016.2
20260505031935 17 198 9.7 24.1 0.00 0.00 0.00 47 1016.3
20260505031435 17 193 8.0 22.5 0.00 0.00 0.00 47 1016.4
20260505030935 17 196 9.7 20.9 0.00 0.00 0.00 46 1016.4
20260505030435 17 198 8.0 24.1 0.00 0.00 0.00 45 1016.3
20260505025937 17 197 6.4 24.1 0.00 0.00 0.00 45 1016.4
20260505025435 17 199 8.0 24.1 0.00 0.00 0.00 44 1016.4
20260505024935 18 205 8.0 24.1 0.00 0.00 0.00 43 1016.4
20260505024409 18 200 8.0 25.7 0.00 0.00 0.00 43 1016.4
20260505023909 18 204 12.9 25.7 0.00 0.00 0.00 42 1016.3
20260505023409 18 197 8.0 22.5 0.00 0.00 0.00 42 1016.3
20260505022909 18 198 9.7 22.5 0.00 0.00 0.00 42 1016.3
20260505022409 18 197 8.0 20.9 0.00 0.00 0.00 43 1016.4
20260505021909 18 197 9.7 20.9 0.00 0.00 0.00 43 1016.4
20260505021409 18 198 8.0 20.9 0.00 0.00 0.00 43 1016.5
20260505020909 18 202 8.0 27.4 0.00 0.00 0.00 43 1016.5
20260505020409 18 201 9.7 27.4 0.00 0.00 0.00 43 1015.5
20260505015909 18 193 9.7 20.9 0.00 0.00 0.00 44 1015.5
20260505015409 18 195 6.4 20.9 0.00 0.00 0.00 44 1015.5
20260505014439 18 195 9.7 22.5 0.00 0.00 0.00 44 1015.5
20260505013938 18 200 8.0 22.5 0.00 0.00 0.00 45 1015.5
20260505013438 18 194 6.4 32.2 0.00 0.00 0.00 45 1015.4
20260505012938 18 198 9.7 32.2 0.00 0.00 0.00 44 1015.4
20260505012438 18 199 11.3 20.9 0.00 0.00 0.00 44 1015.3
20260505011938 18 195 8.0 19.3 0.00 0.00 0.00 44 1015.2
20260505011439 18 205 9.7 19.3 0.00 0.00 0.00 45 1015.3
20260505010938 18 198 8.0 20.9 0.00 0.00 0.00 46 1015.4
20260505010438 18 199 8.0 20.9 0.00 0.00 0.00 45 1015.2
20260505005938 18 195 9.7 20.9 0.00 0.00 0.00 44 1015.1
20260505005209 18 201 8.0 20.9 0.00 0.00 0.00 45 1015.0
20260505004709 18 196 6.4 16.1 0.00 0.00 0.00 45 1015.0
20260505004209 18 197 8.0 17.7 0.00 0.00 0.00 45 1015.0
20260505003709 18 199 8.0 17.7 0.00 0.00 0.00 45 1015.0
20260505003209 18 196 6.4 16.1 0.00 0.00 0.00 45 1015.0
20260505002709 18 201 6.4 19.3 0.00 0.00 0.00 45 1015.0
20260505002209 18 207 6.4 19.3 0.00 0.00 0.00 46 1015.0
20260505001709 18 201 6.4 14.5 0.00 0.00 0.00 46 1015.0
20260505001209 18 195 6.4 14.5 0.00 0.00 0.00 46 1014.9
20260505000709 18 196 6.4 17.7 0.00 0.00 0.00 46 1015.0
20260505000211 18 198 6.4 17.7 0.00 0.00 0.00 46 1015.0
20260504235709 19 197 8.0 16.1 0.00 0.00 0.00 46 1015.0
20260504235209 19 196 8.0 17.7 0.00 0.00 0.00 46 1014.9
20260504234710 19 194 8.0 19.3 0.00 0.00 0.00 46 1014.9
20260504234209 19 205 6.4 19.3 0.00 0.00 0.00 47 1014.8
20260504233709 19 201 8.0 17.7 0.00 0.00 0.00 47 1014.8
20260504233056 19 198 8.0 19.3 0.00 0.00 0.00 47 1014.8
20260504232558 19 195 9.7 19.3 0.00 0.00 0.00 47 1014.8
20260504231555 19 192 8.0 22.5 0.00 0.00 0.00 48 1014.8
20260504231055 19 196 11.3 22.5 0.00 0.00 0.00 48 1014.7
20260504230555 19 187 6.4 20.9 0.00 0.00 0.00 48 1014.7
20260504230055 19 186 4.8 20.9 0.00 0.00 0.00 47 1014.7
20260504225555 20 188 9.7 20.9 0.00 0.00 0.00 47 1014.6
20260504225055 20 200 8.0 20.9 0.00 0.00 0.00 47 1014.7
20260504224556 20 194 9.7 24.1 0.00 0.00 0.00 47 1014.7
20260504224055 20 201 9.7 24.1 0.00 0.00 0.00 47 1014.7
20260504223555 20 196 8.0 24.1 0.00 0.00 0.00 47 1014.6
20260504223055 20 179 6.4 24.1 0.00 0.00 0.00 48 1014.6
20260504222555 20 185 3.2 20.9 0.00 0.00 0.00 48 1014.6
20260504222056 20 192 8.0 16.1 0.00 0.00 0.00 47 1014.7
20260504221555 20 189 4.8 16.1 0.00 0.00 0.00 48 1014.8
20260504221055 20 199 4.8 16.1 0.00 0.00 0.00 47 1014.7
20260504220555 20 202 3.2 24.1 0.00 0.00 0.00 48 1014.8
20260504220055 20 201 6.4 24.1 0.00 0.00 0.00 47 1014.7
20260504215555 20 191 4.8 16.1 0.00 0.00 0.00 48 1014.7
20260504215055 20 189 4.8 20.9 0.00 0.00 0.00 47 1014.7
20260504214555 20 198 4.8 20.9 0.00 0.00 0.00 47 1014.7
20260504214055 21 193 6.4 16.1 0.00 0.00 0.00 47 1014.6
20260504213555 21 193 4.8 16.1 0.00 0.00 0.00 47 1014.8
20260504213055 21 198 1.6 16.1 0.00 0.00 0.00 47 1014.7
20260504212555 21 185 3.2 14.5 0.00 0.00 0.00 48 1014.7
20260504212055 21 187 4.8 16.1 0.00 0.00 0.00 47 1014.8